This is the latest recevied weather packets stored in our database for station/object W2JGA. If no packets are shown the sender has not sent any weather packets the latest 10 day(s).
| Time | Temp. | Humidity | Pressure | Rain* | Wind** | Luminosity | Snow |
|---|---|---|---|---|---|---|---|
| 1777130274 | 22.78° C | 25% | 1013.9 hPa | 0 mm | - | 275 W/m² | - |
| 1777129970 | 23.33° C | 25% | 1013.9 hPa | 0 mm | - | 255 W/m² | - |
| 1777129669 | 22.22° C | 25% | 1013.9 hPa | 0 mm | - | 230 W/m² | - |
| 1777129364 | 22.22° C | 26% | 1013.9 hPa | 0 mm | - | 222 W/m² | - |
| 1777129059 | 21.67° C | 27% | 1013.9 hPa | 0 mm | - | 193 W/m² | - |
| 1777128755 | 21.67° C | 27% | 1013.9 hPa | 0 mm | - | 52 W/m² | - |
| 1777128453 | 21.11° C | 28% | 1013.9 hPa | 0 mm | - | 126 W/m² | - |
| 1777128150 | 21.11° C | 29% | 1013.9 hPa | 0 mm | - | 144 W/m² | - |
| 1777127848 | 21.11° C | 28% | 1013.9 hPa | 0 mm | - | 92 W/m² | - |
| 1777127545 | 20.56° C | 29% | 1013.9 hPa | 0 mm | - | 126 W/m² | - |
| 1777127241 | 19.44° C | 30% | 1013.6 hPa | 0 mm | - | 114 W/m² | - |
| 1777126937 | 19.44° C | 30% | 1013.9 hPa | 0 mm | - | 85 W/m² | - |
| 1777126633 | 18.89° C | 30% | 1013.6 hPa | 0 mm | - | 108 W/m² | - |
| 1777126329 | 18.33° C | 33% | 1013.6 hPa | 0 mm | - | 93 W/m² | - |
| 1777126025 | 18.33° C | 34% | 1013.6 hPa | 0 mm | - | 67 W/m² | - |
| 1777125722 | 18.33° C | 32% | 1013.6 hPa | 0 mm | - | 75 W/m² | - |
| 1777125418 | 17.78° C | 33% | 1013.6 hPa | 0 mm | - | 64 W/m² | - |
| 1777125113 | 17.78° C | 32% | 1013.2 hPa | 0 mm | - | 60 W/m² | - |
| 1777124809 | 17.22° C | 33% | 1013.6 hPa | 0 mm | - | 58 W/m² | - |
| 1777124504 | 16.67° C | 33% | 1013.2 hPa | 0 mm | - | 54 W/m² | - |
| 1777124201 | 16.67° C | 33% | 1013.6 hPa | 0 mm | - | 41 W/m² | - |
| 1777123898 | 16.67° C | 33% | 1013.2 hPa | 0 mm | - | 30 W/m² | - |
| 1777123595 | 16.67° C | 33% | 1013.2 hPa | 0 mm | - | 25 W/m² | - |
| 1777123290 | 16.67° C | 32% | 1013.2 hPa | 0 mm | - | 24 W/m² | - |
| 1777122987 | 16.67° C | 32% | 1012.9 hPa | 0 mm | - | 21 W/m² | - |
* Rain latest hour (hover to see other rain measurements)
** Current wind speed in m/s (hover to see current wind gust speed)